sat.trackr.live / text

‹ back to catalog

STARLINK-32723

NORAD 62449 · 2024-251T

PAYLOAD ACTIVE UNKNOWN

§ Identity

Operator
Country
US
Launch date
2024-12-29
Launch site
AFWTR
Launch vehicle
Mass (kg)
RCS (m²)

Purposes: comms

External: N2YO · Heavens-Above · Gunter

§ Orbital elements

Epoch: 2026-05-24T22:30:05.548608Z

Period
94.10 min
Inclination
53.1621°
Eccentricity
0.0001054
Mean motion
15.30210923 rev/d
Perigee alt
474.5 km
Apogee alt
475.9 km
Semi-major
6,853.3 km
B*
5.4621e-4
RAAN
341.0435°
Arg perigee
77.1351°
Mean anomaly
282.9767°
Rev number
7,946

§ Raw data

STARLINK-327231 62449U 24251T   26144.93756422  .00015858  00000+0  54621-3 0  99912 62449  53.1621 341.0435 0001054  77.1351 282.9767 15.30210923 79462

JSON: /api/v1/satellites/62449 · /tle

For live sub-satellite position, see the globe view (requires WebGL).

§ Visibility from observer

Set your observer location to see the next 7 days of passes ≥ 10°. The values pass through the URL so the page stays shareable.

No JS? Fill the form by hand. The geolocation button needs JavaScript.